EHI
0 0 0 1 0 0 0 0 0 0 0 0 0 0 0 0 0 1 1 1 1 4 6 6 7 6 5 4 5 5 4 4 4 3 3 3 2 2 1 0 0 0 0 0 0 2 3 2 0
0 0 0 1 0 0 0 0 0 0 0 0 0 0 0 0 0 0 1 1 2 4 6 7 8 7 5 4 5 5 4 3 3 2 2 2 2 2 1 0 0 0 0 0 0 1 2 1 1
0 0 0 0 0 0 0 0 0 0 0 0 0 0 0 0 0 0 1 2 3 3 5 9 10 7 5 4 4 6 5 3 1 1 1 0 1 1 1 0 0 0 0 0 0 0 0 0 0
0 0 0 0 0 0 0 0 0 0 0 0 0 0 0 0 0 0 1 3 2 2 4 9 10 7 4 3 4 5 5 3 1 0 0 0 0 0 0 0 0 0 0 0 0 0 0 0 1
0 0 0 0 0 1 1 1 0 0 0 0 0 0 0 0 0 1 2 3 2 1 3 8 9 7 4 3 3 4 4 2 1 0 1 1 0 0 1 1 1 1 0 0 0 0 0 1 2
0 0 0 0 1 2 2 1 0 0 0 0 0 0 0 1 1 2 3 3 1 1 3 7 8 6 4 3 3 3 3 3 3 2 2 2 1 1 2 3 2 1 0 1 1 0 0 1 2
0 0 0 0 1 2 1 0 0 0 0 0 0 0 1 3 4 4 4 3 2 2 3 4 5 4 3 2 3 3 3 4 5 5 4 2 1 1 3 3 2 0 0 0 1 1 1 2 2
0 0 0 0 1 1 1 0 0 0 0 0 0 1 4 8 10 9 8 5 4 3 3 3 2 1 1 1 2 3 3 4 5 5 4 1 0 1 1 2 1 0 0 0 0 0 1 2 2
0 0 0 0 0 0 0 0 0 0 0 0 1 3 9 16 18 16 13 9 6 4 3 2 0 0 0 0 1 1 2 3 3 3 2 1 0 0 0 1 1 0 0 0 0 0 1 2 2
0 0 0 0 0 0 0 0 0 0 0 0 2 6 13 20 20 18 16 12 9 6 3 1 0 0 0 0 0 0 1 1 1 1 1 0 0 0 0 0 1 1 1 1 1 2 1 1 2
0 0 0 0 0 0 0 0 0 0 0 0 3 10 17 20 18 16 14 12 10 8 5 3 1 0 0 0 0 0 0 0 0 1 1 0 0 0 0 0 1 2 2 2 2 2 1 1 1
0 0 0 0 0 0 0 0 0 0 1 1 4 13 19 19 16 13 11 10 9 9 8 6 4 3 3 2 1 0 0 0 0 1 2 1 1 0 0 0 1 1 1 1 1 1 1 1 1
0 0 0 0 0 0 0 0 0 1 1 2 6 12 16 15 12 10 9 9 9 10 10 9 8 8 8 6 3 1 0 0 0 1 2 2 1 0 0 0 0 0 0 0 0 0 1 2 2
0 0 0 0 0 0 0 0 1 2 2 3 6 9 10 10 9 9 9 9 10 10 11 11 11 12 12 10 7 3 1 1 1 2 3 4 2 1 1 0 0 0 0 1 1 2 3 4 3
0 0 0 0 0 0 0 0 1 3 4 4 5 5 5 5 7 8 8 9 10 11 12 12 11 13 14 13 10 6 3 2 3 4 7 6 3 2 2 1 1 1 2 3 4 4 4 4 4
0 0 0 0 0 0 0 0 1 3 5 5 4 3 3 4 7 7 7 7 9 12 14 14 12 14 17 16 12 8 6 5 6 7 8 7 5 5 5 4 4 5 5 5 5 5 5 5 5
0 0 0 0 0 0 0 1 2 4 6 7 6 4 5 7 10 11 9 9 11 15 18 18 16 16 18 18 15 12 9 7 7 8 8 7 8 8 7 7 7 7 7 6 6 7 7 6 5
0 0 0 0 0 0 0 1 3 5 8 10 9 7 8 11 14 14 12 10 14 19 21 21 20 20 21 20 18 16 12 8 7 8 9 9 9 9 8 8 8 8 7 6 6 7 6 4 4
0 0 0 0 0 0 0 0 2 4 7 10 11 10 10 11 13 12 10 9 13 18 20 20 21 21 20 18 18 17 14 9 6 7 9 10 10 10 10 10 10 8 7 6 6 7 6 4 4
0 0 0 0 0 0 0 0 0 1 4 7 9 9 9 10 10 9 7 8 10 12 14 17 20 20 17 15 14 14 12 8 7 8 10 12 12 11 12 12 12 9 8 7 7 7 6 5 5
0 0 0 0 0 0 0 0 0 0 2 4 5 6 6 7 9 9 8 8 9 10 10 13 20 20 16 12 11 12 10 8 7 10 12 13 13 13 12 12 11 10 8 8 7 7 7 6 6
0 0 0 0 0 0 0 1 2 2 2 3 4 4 4 4 6 7 8 9 10 9 10 13 19 21 18 14 13 14 12 9 10 12 12 12 13 12 10 9 10 11 9 8 7 7 7 7 6
0 0 0 0 0 0 0 1 2 3 3 4 5 4 3 2 2 4 6 9 8 8 9 13 19 22 20 18 18 17 13 10 12 12 12 12 12 11 9 9 11 13 12 10 9 8 8 7 6
0 0 0 0 0 0 0 0 2 3 4 6 6 5 3 1 1 3 6 8 8 8 9 13 21 25 23 21 21 19 15 14 14 14 13 12 12 11 10 10 12 14 14 12 10 9 8 6 5
0 0 0 0 0 0 0 1 2 3 4 6 7 7 5 3 3 6 9 11 11 10 11 14 21 26 25 23 22 20 18 17 16 15 14 12 12 12 13 13 13 13 13 11 11 10 9 7 6
0 0 0 0 0 0 0 1 3 3 4 6 7 8 7 7 8 9 12 15 14 15 17 18 20 24 25 23 20 18 17 17 15 13 12 10 10 13 15 16 14 13 10 10 12 13 11 8 7
0 0 0 0 0 0 1 2 3 3 4 6 7 7 7 8 10 11 12 13 15 18 21 21 21 24 24 22 20 18 18 17 15 13 11 9 10 14 16 17 16 13 10 10 13 14 11 8 7
0 0 0 0 0 0 1 2 3 3 5 6 6 5 7 8 10 11 10 11 14 18 20 22 23 25 24 23 23 22 22 20 18 15 12 11 14 16 16 15 15 14 12 13 14 13 11 9 7
0 0 0 0 0 0 0 1 2 3 5 6 4 4 4 6 8 10 11 12 14 17 20 23 24 24 24 25 26 27 26 24 20 18 16 15 18 18 14 11 12 13 13 15 16 14 11 10 9
0 0 0 0 0 0 0 0 1 2 5 5 4 3 3 4 7 11 13 14 15 18 21 23 23 22 23 25 28 29 27 25 23 20 19 18 19 17 12 9 11 12 12 14 16 15 12 10 10
Wind_Speed
9 8 6 6 8 3 5 6 4 5 5 6 5 4 6 8 7 8 8 9 8 9 11 11 9 8 7 7 7 6 6 6 5 5 5 5 6 6 5 5 5 5 5 6 5 5 5 6 5
6 6 7 7 5 3 6 5 5 6 6 5 4 3 4 7 7 7 8 9 9 9 10 9 10 8 7 7 7 7 7 6 6 5 5 6 6 5 5 5 4 5 5 5 5 5 5 5 4
6 7 7 5 1 2 6 5 6 7 5 3 3 4 5 6 6 6 9 10 9 9 10 11 9 8 7 7 7 7 6 6 6 5 5 5 5 5 5 5 5 5 6 5 5 5 5 5 4
6 7 6 4 3 5 4 5 5 6 4 3 3 5 6 6 4 7 11 11 9 9 10 12 8 7 7 7 7 6 6 6 6 6 5 5 5 5 4 5 6 6 6 5 5 4 4 4 4
7 6 6 3 3 4 4 4 4 3 4 4 3 5 7 6 7 11 11 10 9 9 9 12 9 7 7 6 6 6 6 6 6 6 5 5 5 5 5 6 6 7 6 5 4 5 4 4 3
6 6 5 3 5 4 4 3 3 2 4 4 4 6 7 8 9 10 10 9 9 8 9 11 11 8 7 6 6 5 6 6 6 5 5 5 5 5 6 7 7 6 6 5 5 5 5 4 3
7 5 4 2 4 5 4 2 2 1 2 3 3 5 8 9 9 10 10 8 8 8 8 8 9 9 8 7 6 5 5 5 5 4 4 5 5 5 6 6 6 6 5 4 4 5 5 4 3
6 5 5 4 4 4 4 2 1 1 2 4 3 3 6 11 11 11 10 8 8 7 7 7 7 7 7 8 7 5 5 4 4 4 4 3 4 5 5 6 6 5 5 4 4 4 4 4 4
7 7 6 4 3 4 4 3 2 1 4 4 2 2 8 15 14 12 10 9 8 7 6 6 6 6 5 5 7 6 6 5 4 4 4 3 2 4 4 7 6 5 4 3 3 3 3 3 4
7 7 3 0 1 1 2 2 3 4 5 5 5 7 12 15 14 13 11 11 10 8 7 6 5 5 4 4 4 3 3 4 2 2 2 1 2 2 3 8 5 4 3 3 3 3 4 4 3
6 5 1 1 1 1 3 3 3 5 4 4 6 10 14 15 13 12 11 10 9 9 7 6 5 4 3 3 3 1 1 2 2 2 1 1 1 1 1 2 4 4 3 2 3 3 1 1 1
6 4 3 2 1 3 4 3 4 4 2 1 6 12 14 15 14 12 11 10 9 9 8 6 6 4 3 2 2 2 1 1 1 2 1 1 0 0 1 1 1 1 1 1 1 1 1 1 1
8 5 3 3 4 4 4 5 4 3 1 3 8 12 14 14 12 11 10 10 9 9 8 7 5 4 3 2 1 1 1 1 2 1 1 0 1 1 1 1 1 1 1 1 1 2 2 1 1
4 4 5 5 4 4 5 4 5 3 4 6 9 11 12 12 12 11 11 10 9 9 8 7 6 5 4 3 2 1 1 1 1 1 1 1 0 1 0 1 1 1 1 2 1 2 2 1 1
5 7 7 6 5 4 6 7 5 3 5 7 8 9 10 11 11 11 10 10 9 9 8 7 7 6 5 4 3 2 2 1 1 1 1 1 1 1 1 1 1 1 0 1 1 1 1 2 1
9 10 9 6 5 4 9 6 4 5 6 7 7 8 9 10 10 9 9 8 8 8 8 7 6 6 5 4 3 2 1 1 1 1 1 2 1 1 1 1 1 0 1 1 1 1 1 1 1
11 10 8 6 5 5 8 4 4 4 6 6 7 7 8 9 9 9 9 8 7 8 8 7 6 6 6 5 3 3 1 1 1 1 1 1 2 2 2 1 0 1 1 0 0 2 1 1 1
8 8 7 6 5 6 7 4 3 5 6 7 7 7 8 8 8 8 7 7 7 7 7 7 7 6 5 4 3 3 2 2 2 1 1 2 2 2 2 2 1 1 1 0 0 1 1 0 0
6 7 7 5 3 7 7 5 4 5 6 7 7 8 8 8 8 7 7 7 7 7 7 7 6 6 5 4 3 3 3 2 2 1 2 3 2 2 2 1 1 2 1 1 1 1 2 1 1
8 9 7 5 3 6 6 7 5 6 7 6 6 7 7 7 8 8 8 8 8 8 7 7 7 6 6 4 3 2 2 2 2 1 2 3 3 3 3 2 2 1 1 1 1 2 1 1 1
10 10 7 5 4 7 7 9 7 6 6 6 6 6 6 7 7 8 9 9 9 9 8 7 7 7 6 5 4 3 3 3 2 2 2 2 3 3 2 2 2 2 2 1 2 2 3 2 1
9 6 7 7 9 6 7 7 6 6 7 6 6 6 6 6 7 7 9 10 9 9 9 8 7 7 6 6 5 5 4 4 3 3 2 3 3 4 3 3 3 2 2 1 3 1 2 2 2
5 2 6 8 10 9 9 10 5 5 6 5 4 4 5 5 7 7 8 9 9 9 8 8 8 7 7 7 6 6 5 4 3 3 3 3 3 4 4 4 3 3 2 2 2 1 2 2 3
4 6 7 9 10 11 7 9 4 4 3 3 2 2 3 4 5 6 7 8 8 8 8 8 8 7 7 7 7 6 5 4 4 4 4 4 3 3 4 4 3 3 3 3 3 2 3 2 2
9 9 7 9 9 8 5 8 3 1 1 2 2 1 1 2 4 6 7 8 8 8 8 8 8 7 7 7 7 6 6 5 5 5 4 4 3 3 4 3 3 3 3 3 3 3 2 2 3
9 11 8 8 7 5 6 7 2 2 1 1 1 1 0 1 3 5 6 6 7 8 8 8 8 8 7 7 7 6 6 5 5 5 4 4 3 3 3 4 4 4 3 3 3 3 3 2 2
8 9 8 10 10 9 6 4 4 3 2 1 1 1 1 0 2 3 4 5 6 7 8 8 8 8 7 7 7 6 6 6 5 5 5 4 3 3 4 4 4 4 4 3 3 2 2 2 3
7 6 6 9 9 10 8 7 4 5 3 1 0 1 1 0 1 2 2 3 4 6 7 7 8 8 7 7 6 5 6 6 5 5 5 4 4 3 4 4 4 4 4 4 3 3 3 3 3
7 8 8 8 8 9 8 3 3 2 1 0 1 2 2 2 1 1 2 3 4 5 6 7 7 7 6 6 6 5 5 5 5 5 5 4 4 4 4 4 4 4 4 4 4 4 4 4 4
7 8 9 8 8 8 9 1 5 3 2 1 2 3 3 2 2 0 1 2 3 5 6 6 6 7 6 6 6 5 5 5 5 5 4 4 4 4 4 4 4 5 4 4 4 5 4 4 4
Wind_Direction
188 196 218 235 234 194 89 84 73 79 76 64 62 41 40 32 22 61 95 121 123 124 121 129 119 117 114 113 110 104 103 101 101 101 103 105 106 106 109 115 120 131 137 134 134 128 128 130 130
194 204 229 240 252 142 102 91 84 69 82 100 98 74 71 65 55 93 121 127 135 126 126 119 118 118 114 113 108 103 102 100 98 98 97 98 97 101 104 110 120 131 137 137 140 135 133 129 125
206 233 257 247 275 55 90 93 89 92 112 122 100 63 44 66 89 110 119 138 138 129 124 115 123 120 116 112 110 102 101 99 97 92 89 92 94 95 97 93 103 119 121 122 132 134 131 130 131
225 224 236 244 115 71 69 93 113 127 130 120 115 100 85 65 89 113 131 143 137 130 125 119 128 123 117 112 108 104 100 97 95 90 86 86 89 92 97 95 92 104 109 107 108 114 126 125 134
240 249 228 191 117 92 85 107 147 137 118 122 127 106 99 87 102 124 139 142 136 129 126 124 129 125 120 112 106 103 99 94 93 89 84 81 83 88 93 98 91 96 99 103 108 102 108 122 128
235 240 231 179 128 112 108 125 159 123 107 124 133 119 99 115 129 137 141 143 134 131 129 128 135 132 126 120 111 104 98 91 88 85 84 81 82 86 91 94 92 92 95 100 104 99 89 82 107
261 249 234 191 144 133 113 126 186 127 130 130 140 119 121 137 138 143 142 142 137 137 134 139 144 145 145 134 120 107 98 92 89 85 86 88 91 93 93 97 92 91 91 98 109 108 96 84 92
275 253 213 197 173 128 122 141 144 199 114 113 166 145 140 146 147 148 146 147 144 142 141 145 144 144 154 143 131 123 117 108 109 103 98 104 124 122 116 119 98 90 85 91 101 111 114 107 101
251 240 213 191 179 126 136 163 143 149 141 148 144 68 115 141 150 154 154 154 149 149 149 153 149 151 153 137 134 150 151 142 163 142 139 183 151 127 134 95 98 97 96 101 108 121 138 155 149
236 235 215 39 355 117 169 200 170 184 176 163 141 114 130 148 158 164 164 164 162 161 158 157 155 153 150 135 142 157 154 140 160 106 137 150 98 87 97 113 121 123 128 141 139 164 189 214 169
232 244 208 204 282 274 226 226 209 212 206 186 166 150 153 161 168 173 170 169 166 162 159 161 160 155 155 148 144 140 133 128 144 115 122 108 147 132 140 139 147 155 168 157 149 182 179 105 85
231 235 254 250 261 258 250 238 226 241 314 104 153 154 163 172 176 178 173 171 167 167 166 164 164 160 160 139 144 157 146 144 135 128 206 151 147 112 102 93 90 122 111 93 105 110 91 79 94
224 226 241 254 248 252 248 239 241 231 222 143 147 157 169 177 179 177 174 171 171 173 172 169 172 160 158 166 206 167 173 180 141 145 156 238 166 94 93 88 59 42 73 114 110 102 94 82 85
226 235 246 247 234 221 226 226 226 214 171 159 162 167 173 178 179 175 178 179 179 178 178 171 179 170 177 184 202 204 197 195 191 155 138 206 199 86 121 134 108 69 38 39 54 90 102 93 80
230 231 227 219 223 209 219 216 215 173 171 172 173 173 175 180 181 183 183 184 181 178 178 178 181 177 186 196 208 210 220 212 224 169 165 201 204 146 216 170 173 102 105 134 116 108 96 113 112
215 223 217 186 206 199 236 223 140 167 185 186 181 177 182 183 186 185 184 187 180 179 178 184 182 175 181 196 212 218 226 230 238 219 174 186 210 199 229 205 149 163 206 158 124 115 91 78 70
211 221 217 179 195 209 236 237 135 181 196 193 188 186 188 186 191 186 185 184 180 179 181 184 184 182 183 188 199 214 209 238 248 235 205 183 209 210 227 222 120 214 219 246 322 90 70 85 69
213 223 219 212 182 226 237 240 174 188 203 199 194 192 193 193 190 183 181 176 174 171 176 181 183 183 187 190 197 212 209 217 222 222 223 223 213 208 238 196 183 235 187 174 81 104 100 97 71
255 246 235 220 197 240 237 235 206 190 201 200 196 195 194 193 185 178 180 177 172 171 174 182 187 180 190 197 208 206 206 219 218 213 215 223 224 205 232 253 176 241 194 234 210 187 166 180 182
238 240 231 210 189 251 239 238 216 207 206 205 204 199 198 192 183 178 180 181 178 177 180 185 190 189 199 196 211 220 232 226 216 216 198 225 222 220 205 222 231 215 201 202 234 228 243 212 229
231 244 244 238 216 224 239 229 204 189 205 207 210 209 203 199 193 184 186 187 186 185 187 189 193 194 200 198 202 203 208 225 208 209 196 212 217 209 220 203 220 223 231 199 237 242 249 250 225
233 232 249 240 241 226 233 245 189 192 195 203 206 207 208 205 203 193 189 189 192 190 187 188 190 195 195 198 208 211 216 217 216 224 203 198 209 215 207 210 210 228 235 219 238 224 253 251 246
251 234 240 241 248 252 226 254 183 183 212 208 205 208 214 211 207 199 196 194 192 189 187 185 187 191 194 202 206 218 225 222 210 208 198 209 196 210 213 207 205 210 222 226 251 241 256 250 260
215 212 217 232 240 241 229 252 228 182 220 212 204 211 218 221 206 199 196 194 192 189 191 188 186 189 193 199 205 214 224 230 221 209 203 205 195 198 203 206 202 207 215 208 218 222 214 241 263
218 230 225 219 222 232 194 241 244 119 205 254 252 249 227 214 201 195 194 192 192 193 195 193 188 190 194 198 206 210 218 221 221 221 209 218 207 198 192 200 204 210 215 215 208 197 222 219 226
224 242 256 262 254 229 202 235 156 126 126 197 235 351 53 195 193 196 196 194 195 196 197 196 192 193 193 198 204 208 214 219 217 215 224 213 222 214 188 194 201 204 211 213 201 197 199 207 219
230 240 269 273 271 265 229 201 180 169 175 182 143 91 38 90 179 195 192 190 195 197 198 197 193 193 194 198 201 201 208 220 220 210 215 219 214 204 187 196 197 198 202 210 207 197 196 205 218
264 253 242 251 256 256 242 232 212 179 195 182 84 340 343 311 186 197 198 195 197 194 190 192 191 190 191 194 201 196 201 211 215 213 210 213 210 202 188 193 196 197 197 199 202 188 186 205 216
209 225 246 255 264 266 259 236 69 129 149 204 356 352 341 346 278 218 205 198 200 193 188 188 188 188 186 191 195 199 195 200 205 207 206 203 204 196 194 198 202 199 198 199 200 208 198 201 203
248 245 238 248 247 256 271 227 82 72 68 5 357 356 356 4 10 25 171 184 198 196 191 187 188 189 187 185 184 189 194 190 194 198 202 203 200 196 196 203 207 206 202 205 206 208 203 204 199